Tracking 31028 objects as of 17-Jul-2025
HD Live streaming from Space Station
objects crossing your sky now

DELTA 1 DEB

Track DELTA 1 DEB now!
10-day predictions


NORAD ID: 7200
Int'l Code: 1973-086FJ
Perigee: 1,443.1 km
Apogee: 1,916.2 km
Inclination: 102.4 °
Period: 119.8 minutes
Semi major axis: 8050 km
RCS: 0.0922 m2 (small)
Launch date: November 6, 1973
Source: United States (US)
Launch site: AIR FORCE WESTERN TEST RANGE (AFWTR)

Note: This is SATELLITE DEBRIS
Your satellite tracking list
Your tracking list is empty




NASA's NSSDC Master Catalog

Two Line Element Set (TLE):
1 07200U 73086FJ  25197.49882552 -.00000023  00000-0  20038-3 0  9992
2 07200 102.3639 195.3709 0293790 202.0793 312.6396 12.01866378261979
Source of the keplerian elements: AFSPC